Location: De Greiden
(52.9496°N, 5.9137°E)
Time: 01:56:27
(UTC+00:00)

AQUARIUS - Pass Details

Date: 24 January 2021
Orbit: 650 x 652 km, 98.0° (Epoch: 26 February)

Event Time Altitude Azimuth Distance (km) Brightness Sun altitude
Rises 16:54:28 0° 165° (SSE) 2,963 7.6 -7.3°
Reaches altitude 10° 16:56:40 10° 166° (SSE) 2,057 6.8 -7.6°
Maximum altitude 17:01:10 85° 255° (WSW) 663 4.3 -8.2°
Drops below altitude 10° 17:05:43 10° 344° (NNW) 2,073 6.7 -8.9°
Sets 17:07:56 0° 346° (NNW) 2,989 7.5 -9.2°
